Hailey, ID

8:42 AM MDT on March 30, 2017 (GMT -0600)
Friedman Memorial

Weather History for KSUN - February, 2013

Change the Weather History Date:

Monday, February 18, 2013

  Actual Average Record
Temperature  
Mean Temperature 24 °F -  
Max Temperature 33 °F 37 °F 53 °F (2008)
Min Temperature 15 °F 16 °F 1 °F (2006)
Degree Days  
Heating Degree Days 41    
Moisture  
Dew Point 12 °F    
Average Humidity 63    
Maximum Humidity 74    
Minimum Humidity 46    
Precipitation  
Precipitation 0.00 in - - ()
Sea Level Pressure  
Sea Level Pressure 29.99 in    
Wind  
Wind Speed 11 mph (NW)    
Max Wind Speed 16 mph    
Max Gust Speed 16 mph    
Visibility 10 miles    
Events      
Averages and records for this station are not official NWS values.
T = Trace of Precipitation, MM = Missing Value Source: NWS Daily Summary

Daily Weather History Graph

Daily Weather History Graph

Search for Another Location

Airport or City:

Trip Planner

Search our weather history database for the weather conditions in past years. The results will help you decide how hot, cold, wet, or windy it might be!

Date:

Astronomy

Feb. 18, 2013 Rise Set
Actual Time 7:30 AM MST 6:12 PM MST
Civil Twilight 7:01 AM MST 6:41 PM MST
Nautical Twilight 6:28 AM MST 7:14 PM MST
Astronomical Twilight 5:55 AM MST 7:47 PM MST
Moon 11:55 AM MST (2/18) 2:18 AM MST (2/18)
Length of Visible Light 11h 39m
Length of Day
10h 41m
First Quarter, 59% of the Moon is Illuminated
Feb 18
First Quarter
Feb 25
Full
Mar 4
Last Quarter
Mar 11
New
Mar 19
First Quarter

Hourly Weather History & Observations

Time (MST) Temp. Windchill Dew Point Humidity Pressure Visibility Wind Dir Wind Speed Gust Speed Precip Events Conditions
12:15 AM 23.0 °F 11.1 °F 10.4 °F 59% 30.02 in 10.0 mi WNW 12.7 mph - N/A   Clear
12:35 AM 23.0 °F 11.1 °F 10.4 °F 59% 30.02 in 10.0 mi NW 12.7 mph - N/A   Clear
12:55 AM 23.0 °F 9.6 °F 10.4 °F 59% 30.02 in 10.0 mi NW 16.1 mph - N/A   Clear
1:35 AM 21.2 °F 8.3 °F 10.4 °F 63% 30.03 in 10.0 mi NW 13.8 mph - N/A   Clear
1:55 AM 21.2 °F 9.5 °F 10.4 °F 63% 30.04 in 10.0 mi NW 11.5 mph - N/A   Clear
2:15 AM 21.2 °F 7.3 °F 10.4 °F 63% 30.04 in 10.0 mi NW 16.1 mph - N/A   Clear
2:35 AM 21.2 °F 8.9 °F 10.4 °F 63% 30.04 in 10.0 mi NW 12.7 mph - N/A   Clear
2:55 AM 19.4 °F 7.9 °F 10.4 °F 68% 30.04 in 10.0 mi NW 10.4 mph - N/A   Clear
3:15 AM 19.4 °F 6.6 °F 8.6 °F 63% 30.04 in 10.0 mi NW 12.7 mph 16.1 mph N/A   Clear
3:35 AM 19.4 °F 8.6 °F 10.4 °F 68% 30.04 in 10.0 mi NNW 9.2 mph - N/A   Clear
3:55 AM 19.4 °F 8.6 °F 8.6 °F 63% 30.04 in 10.0 mi NW 9.2 mph - N/A   Clear
4:15 AM 19.4 °F 9.5 °F 8.6 °F 63% 30.04 in 10.0 mi NW 8.1 mph - N/A   Clear
4:35 AM 19.4 °F 7.9 °F 8.6 °F 63% 30.04 in 10.0 mi NW 10.4 mph - N/A   Clear
4:55 AM 17.6 °F 5.7 °F 8.6 °F 68% 30.04 in 10.0 mi NNW 10.4 mph - N/A   Clear
5:15 AM 17.6 °F 5.7 °F 8.6 °F 68% 30.04 in 10.0 mi NNW 10.4 mph - N/A   Clear
5:35 AM 17.6 °F 5.7 °F 8.6 °F 68% 30.05 in 10.0 mi NNW 10.4 mph - N/A   Clear
5:55 AM 17.6 °F 5.0 °F 8.6 °F 68% 30.05 in 10.0 mi NW 11.5 mph - N/A   Clear
6:47 AM 15.8 °F 2.7 °F 6.8 °F 68% 30.05 in 10.0 mi NW 11.5 mph - N/A   Clear
7:47 AM 15.8 °F 4.2 °F 6.8 °F 68% 30.06 in 10.0 mi WNW 9.2 mph - N/A   Partly Cloudy
8:47 AM 15.8 °F 2.7 °F 6.8 °F 68% 30.07 in 10.0 mi NW 11.5 mph - N/A   Partly Cloudy
9:47 AM 17.6 °F 5.7 °F 8.6 °F 68% 30.07 in 10.0 mi NW 10.4 mph - N/A   Partly Cloudy
10:47 AM 24.8 °F 14.6 °F 6.8 °F 46% 30.06 in 10.0 mi NW 10.4 mph - N/A   Partly Cloudy
11:49 AM 28.4 °F 22.2 °F 10.4 °F 47% 30.05 in 10.0 mi NW 5.8 mph - N/A   Scattered Clouds
12:47 PM 32.0 °F 23.6 °F 15.8 °F 51% 30.03 in 10.0 mi SE 10.4 mph - N/A   Scattered Clouds
1:50 PM 32.0 °F 24.2 °F 17.6 °F 55% 30.01 in 10.0 mi SE 9.2 mph - N/A   Scattered Clouds
2:47 PM 33.8 °F 26.4 °F 19.4 °F 56% 29.99 in 10.0 mi SSE 9.2 mph - N/A   Mostly Cloudy
4:47 PM 32.0 °F 24.8 °F 19.4 °F 60% 29.96 in 10.0 mi SE 8.1 mph - N/A   Mostly Cloudy
5:47 PM 30.2 °F 22.6 °F 17.6 °F 60% 29.95 in 10.0 mi SE 8.1 mph - N/A   Mostly Cloudy
6:47 PM 30.2 °F 25.4 °F 15.8 °F 55% 29.94 in 10.0 mi East 4.6 mph - N/A   Mostly Cloudy
7:47 PM 28.4 °F - 14.0 °F 55% 29.93 in 10.0 mi Calm Calm - N/A   Mostly Cloudy
8:47 PM 26.6 °F 18.2 °F 17.6 °F 69% 29.91 in 10.0 mi NW 8.1 mph - N/A   Mostly Cloudy
10:15 PM 26.6 °F 19.1 °F 17.6 °F 69% 29.88 in 10.0 mi NW 6.9 mph - N/A   Scattered Clouds
10:35 PM 24.8 °F 17.9 °F 17.6 °F 74% 29.88 in 10.0 mi North 5.8 mph - N/A   Scattered Clouds
10:47 PM 24.8 °F 16.1 °F 15.8 °F 69% 29.88 in 10.0 mi NW 8.1 mph - N/A   Mostly Cloudy
10:55 PM 24.8 °F 16.9 °F 17.6 °F 74% 29.87 in 10.0 mi NW 6.9 mph - N/A   Clear
11:15 PM 24.8 °F 16.9 °F 15.8 °F 69% 29.86 in 10.0 mi NNW 6.9 mph - N/A   Clear
11:35 PM 24.8 °F 16.1 °F 15.8 °F 69% 29.85 in 10.0 mi WNW 8.1 mph - N/A   Scattered Clouds
11:55 PM 24.8 °F 16.1 °F 15.8 °F 69% 29.84 in 10.0 mi NW 8.1 mph - N/A   Mostly Cloudy